Weather in Rogozovka

Russia / Amur Oblast     50°30′33″N   128°38′30″E
temp.,
°C
wind,
m/s
gust,
m/s
humid.,
%
clouds,
%
prec.,
mm/h
press.,
hPa
HPBL,
m
18 april, sun
sun1800:00+2sw35870 0.0 101377
03:00+1ssw35860 0.0 101268
06:00+1s35870 0.0 101293
09:00+6s56590 0.0 1011384
12:00+10ssw56460 0.0 1009951
15:00+13ssw56390 0.0 10071270
18:00+12ssw46445 0.0 1005470
21:00+8sse35600 0.0 100666
19 april, mon
mon1900:00+6s46695 0.0 100579
03:00+4s467410 0.0 100492
06:00+3sw367610 0.0 100499
09:00+3nnw1012538 0.0 1007846
12:00+4nw1012388 0.0 10091366
15:00+6nw1114240 0.0 10102036
18:00+4nnw1015280 0.0 10112234
21:000nnw1018320 0.0 10141680
20 april, tue
tue2000:00−1nw1019330 0.0 10131717
03:00−2nw1019330 0.0 10131478
06:00−3nw1018320 0.0 10141283
09:000nw1014260 0.0 10151216
12:00+5nw913190 0.0 10141450
15:00+9nw912141 0.0 10141608
18:00+9nw59200 0.0 1014543
21:00+5ese11260 0.0 101510
21 april, wed
wed2100:00+3sse33305 0.0 101627
03:00+2se45490 0.0 101661
06:00+2sse47595 0.0 101690
09:00+10s4640100 0.0 1015267
12:00+16ssw562917 0.0 1015844
15:00+19ssw56240 0.0 10141430
18:00+18s58290 0.0 1014324
21:00+13se51343100 0.0 1015208
22 april, thu
thu2200:00+11se6154552 0.0 1017262
03:00+10se7174410 0.0 1017301
06:00+11se91945100 0.0 1015369
09:00+13sse101741100 0.0 1017572
12:00+19s91329100 0.0 10171268
15:00+21ssw81024100 0.0 10171696
18:00+18sw61035100 0.0 1019481
21:00+14s3550100 0.0 1022105